DW7661 Weather Reports


time (UTC)temp
F
wind
direction
speed
knots
gust
knots
rain 1hr
in
rain 24hr
in
rain mn
in
humidity
%
barometer
mb
20260510090903 60 9 8.7 14.8 0.00 0.00 0.00 56 1015.0
20260510090003 60 11 6.1 12.2 0.00 0.00 0.00 59 1015.0
20260510085403 60 12 7.0 13.0 0.00 0.00 0.00 60 1015.0
20260510084503 60 10 6.1 13.9 0.00 0.00 0.00 62 1015.0
20260510083603 59 11 7.8 13.0 0.00 0.00 0.00 61 1015.0
20260510082703 59 17 7.0 13.0 0.00 0.00 0.00 61 1015.0
20260510081803 59 6 7.0 14.8 0.00 0.00 0.00 62 1015.1
20260510081118 59 6 7.8 14.8 0.00 0.00 0.00 62 1015.2
20260510080003 59 10 7.0 13.0 0.00 0.00 0.00 62 1015.4
20260510075617 59 16 6.1 13.0 0.00 0.00 0.00 63 1015.4
20260510074503 58 7 6.1 12.2 0.00 0.00 0.00 64 1015.5
20260510073603 58 18 7.8 13.0 0.00 0.00 0.00 64 1015.5
20260510072703 58 14 7.0 13.0 0.00 0.00 0.00 65 1015.5
20260510071803 58 3 7.0 14.8 0.00 0.00 0.00 66 1015.5
20260510070903 57 13 6.1 13.9 0.00 0.00 0.00 68 1015.5
20260510070003 57 15 7.0 13.0 0.00 0.00 0.00 69 1015.4
20260510065403 57 12 7.0 13.0 0.00 0.00 0.00 68 1015.5
20260510064503 57 14 6.1 12.2 0.00 0.00 0.00 69 1015.6
20260510063603 56 11 7.0 13.0 0.00 0.00 0.00 69 1015.5
20260510062703 57 7 6.1 13.0 0.00 0.00 0.00 69 1015.5
20260510061803 56 6 7.0 13.0 0.00 0.00 0.00 70 1015.6
20260510060903 56 13 6.1 11.3 0.00 0.00 0.00 72 1015.6
20260510060003 55 12 7.8 13.0 0.00 0.00 0.00 72 1015.6
20260510055403 55 12 6.1 13.0 0.00 0.00 0.00 73 1015.6
20260510054503 55 8 6.1 11.3 0.00 0.00 0.00 75 1015.6
20260510053603 54 8 6.1 12.2 0.00 0.00 0.00 77 1015.6
20260510052703 53 4 5.2 13.0 0.00 0.00 0.00 78 1015.5
20260510051803 53 7 5.2 13.0 0.00 0.00 0.00 79 1015.5
20260510050903 53 3 7.0 12.2 0.00 0.00 0.00 79 1015.5
20260510050003 53 5 7.0 13.0 0.00 0.00 0.00 80 1015.3
20260510045403 53 6 6.1 12.2 0.00 0.00 0.00 80 1015.4
20260510044717 53 8 6.1 10.4 0.00 0.00 0.00 80 1015.3
20260510043603 52 4 5.2 11.3 0.00 0.00 0.00 81 1015.3
20260510042703 52 1 5.2 8.7 0.00 0.00 0.00 80 1015.3
20260510041803 53 5 4.3 9.6 0.00 0.00 0.00 80 1015.5
20260510040903 53 6 4.3 8.7 0.00 0.00 0.00 80 1015.5
20260510040003 53 5 3.5 9.6 0.00 0.00 0.00 80 1015.4
20260510035403 53 1 3.5 7.0 0.00 0.00 0.00 79 1015.5
20260510034503 53 1 4.3 9.6 0.00 0.00 0.00 79 1015.5
20260510033603 53 6 4.3 8.7 0.00 0.00 0.00 79 1015.4
20260510032703 53 6 3.5 7.8 0.00 0.00 0.00 79 1015.5
20260510031803 53 4 4.3 7.8 0.00 0.00 0.00 80 1015.5
20260510030903 53 5 3.5 7.8 0.00 0.00 0.00 80 1015.6
20260510030003 53 6 2.6 9.6 0.00 0.00 0.00 80 1015.6
20260510025403 53 5 2.6 7.0 0.00 0.00 0.00 81 1015.6
20260510024503 53 7 3.5 7.8 0.00 0.00 0.00 81 1015.5
20260510023603 54 4 3.5 7.8 0.00 0.00 0.00 81 1015.6
20260510022703 54 9 3.5 7.8 0.00 0.00 0.00 81 1015.6
20260510021803 54 5 3.5 7.8 0.00 0.00 0.00 81 1015.6
20260510021118 54 4 3.5 6.1 0.00 0.00 0.00 81 1015.8
20260510020003 54 7 4.3 7.8 0.00 0.00 0.00 81 1015.7
20260510015403 54 7 3.5 8.7 0.00 0.00 0.00 80 1015.7
20260510014503 54 12 4.3 9.6 0.00 0.00 0.00 80 1015.8
20260510013603 54 9 3.5 8.7 0.00 0.00 0.00 80 1015.8
20260510012703 55 11 3.5 7.8 0.00 0.00 0.00 79 1015.9
20260510011803 55 9 3.5 6.1 0.00 0.00 0.00 79 1016.0
20260510010903 55 8 2.6 6.1 0.00 0.00 0.00 79 1016.0
20260510010003 55 12 3.5 7.0 0.00 0.00 0.00 78 1015.9
20260510005616 55 13 3.5 7.0 0.00 0.00 0.00 78 1015.9
20260510004718 55 7 3.5 7.0 0.00 0.00 0.00 78 1015.9
20260510003603 55 2 3.5 6.1 0.00 0.00 0.00 78 1015.8
20260510002916 55 2 2.6 6.1 0.00 0.00 0.00 78 1016.0
20260510002018 55 357 2.6 6.1 0.00 0.00 0.00 77 1016.1
20260510000903 55 4 2.6 7.0 0.00 0.00 0.00 77 1016.2
20260510000003 55 6 3.5 6.1 0.00 0.00 0.00 77 1016.3
20260509235403 55 1 3.5 6.1 0.00 0.00 0.00 77 1016.4
20260509234717 55 7 2.6 5.2 0.00 0.00 0.00 77 1016.4
20260509233603 56 6 2.6 5.2 0.00 0.00 0.00 76 1016.5
20260509232703 56 6 2.6 5.2 0.00 0.00 0.00 75 1016.4
20260509232017 56 12 2.6 4.3 0.00 0.00 0.00 75 1016.5
20260509230903 56 6 2.6 5.2 0.00 0.00 0.00 74 1016.5
20260509230003 56 11 2.6 5.2 0.00 0.00 0.00 74 1016.5
20260509225403 56 10 3.5 7.8 0.00 0.00 0.00 74 1016.3
20260509224503 56 5 3.5 7.0 0.00 0.00 0.00 74 1016.3
20260509223603 56 1 2.6 5.2 0.00 0.00 0.00 74 1016.4
20260509222918 56 353 2.6 5.2 0.00 0.00 0.00 73 1016.4
20260509221803 56 359 2.6 5.2 0.00 0.00 0.00 72 1016.5
20260509220903 56 356 2.6 4.3 0.00 0.00 0.00 71 1016.5
20260509220003 57 3 3.5 7.0 0.00 0.00 0.00 70 1016.4
20260509215403 57 2 3.5 7.0 0.00 0.00 0.00 70 1016.3
20260509214503 57 7 3.5 7.0 0.00 0.00 0.00 70 1016.4
20260509213603 57 3 3.5 6.1 0.00 0.00 0.00 69 1016.4
20260509212703 57 1 2.6 5.2 0.00 0.00 0.00 68 1016.4
20260509211803 57 357 2.6 6.1 0.00 0.00 0.00 66 1016.4
20260509210903 57 356 3.5 6.1 0.00 0.00 0.00 65 1016.3
20260509210003 58 358 2.6 5.2 0.00 0.00 0.00 65 1016.3
20260509205403 58 359 2.6 6.1 0.00 0.00 0.00 63 1016.3
20260509204503 58 356 2.6 7.0 0.00 0.00 0.00 63 1016.3
20260509203603 58 358 2.6 7.0 0.00 0.00 0.00 63 1016.2
20260509202703 58 4 3.5 6.1 0.00 0.00 0.00 62 1016.2
20260509201803 58 1 2.6 6.1 0.00 0.00 0.00 61 1016.2
20260509200903 59 354 2.6 5.2 0.00 0.00 0.00 60 1016.2
20260509200003 59 346 2.6 6.1 0.00 0.00 0.00 60 1016.2
20260509195616 59 345 2.6 6.1 0.00 0.00 0.00 60 1016.2
20260509194718 59 341 2.6 5.2 0.00 0.00 0.00 61 1016.1
20260509193603 60 347 2.6 6.1 0.00 0.00 0.00 60 1016.0
20260509192703 60 334 2.6 5.2 0.00 0.00 0.00 59 1016.1
20260509191803 61 335 2.6 5.2 0.00 0.00 0.00 59 1016.1
20260509190903 61 343 2.6 6.1 0.00 0.00 0.00 58 1016.1
20260509190003 61 337 3.5 7.8 0.00 0.00 0.00 58 1016.0
20260509185403 62 335 3.5 7.8 0.00 0.00 0.00 58 1015.9
20260509184503 62 334 3.5 7.0 0.00 0.00 0.00 58 1016.1
20260509183603 62 332 2.6 7.0 0.00 0.00 0.00 58 1016.0
20260509182703 63 332 3.5 7.8 0.00 0.00 0.00 58 1015.9
20260509181803 63 341 3.5 7.8 0.00 0.00 0.00 57 1015.9
20260509180903 64 334 3.5 7.8 0.00 0.00 0.00 57 1015.7
20260509180003 64 331 3.5 8.7 0.00 0.00 0.00 57 1015.7
20260509175403 64 335 4.3 10.4 0.00 0.00 0.00 57 1015.7
20260509174503 64 334 4.3 10.4 0.00 0.00 0.00 56 1015.6
20260509173603 65 341 4.3 10.4 0.00 0.00 0.00 56 1015.6
20260509172918 65 342 4.3 10.4 0.00 0.00 0.00 55 1015.6
20260509171803 66 336 3.5 9.6 0.00 0.00 0.00 54 1015.6
20260509170903 66 333 3.5 8.7 0.00 0.00 0.00 52 1015.6
20260509170003 66 331 4.3 8.7 0.00 0.00 0.00 51 1015.7
20260509165403 67 327 4.3 8.7 0.00 0.00 0.00 49 1015.7
20260509164503 67 345 4.3 10.4 0.00 0.00 0.00 48 1015.8
20260509163603 67 333 2.6 8.7 0.00 0.00 0.00 47 1015.8
20260509162703 67 346 3.5 7.8 0.00 0.00 0.00 48 1015.8
20260509161803 67 339 3.5 8.7 0.00 0.00 0.00 46 1015.8
20260509160903 67 342 3.5 8.7 0.00 0.00 0.00 46 1015.8
20260509160003 67 357 5.2 8.7 0.00 0.00 0.00 45 1015.8
20260509155403 68 349 3.5 7.8 0.00 0.00 0.00 45 1015.8
20260509154503 68 343 3.5 7.0 0.00 0.00 0.00 46 1015.7
20260509153603 68 341 3.5 6.1 0.00 0.00 0.00 47 1015.7
20260509152703 68 350 2.6 6.1 0.00 0.00 0.00 46 1015.7
20260509151803 68 350 2.6 7.0 0.00 0.00 0.00 47 1015.8
20260509150903 68 354 2.6 6.1 0.00 0.00 0.00 45 1015.9
20260509150003 68 342 2.6 6.1 0.00 0.00 0.00 47 1015.8
20260509145403 68 341 3.5 7.0 0.00 0.00 0.00 46 1015.9
20260509144503 68 336 2.6 7.0 0.00 0.00 0.00 47 1016.0
20260509143603 68 344 3.5 5.2 0.00 0.00 0.00 48 1016.1
20260509142703 68 351 4.3 7.8 0.00 0.00 0.00 46 1016.1
20260509142018 68 360 4.3 7.8 0.00 0.00 0.00 46 1016.1
20260509140903 68 351 3.5 7.0 0.00 0.00 0.00 48 1016.2
20260509140003 68 346 3.5 7.0 0.00 0.00 0.00 47 1016.2
20260509135403 67 347 4.3 7.0 0.00 0.00 0.00 45 1016.3
20260509134503 67 353 3.5 8.7 0.00 0.00 0.00 46 1016.4
20260509133603 67 3 4.3 7.8 0.00 0.00 0.00 46 1016.4
20260509132703 67 3 5.2 8.7 0.00 0.00 0.00 45 1016.5
20260509132018 67 357 5.2 7.8 0.00 0.00 0.00 46 1016.5
20260509131117 67 5 4.3 7.0 0.00 0.00 0.00 46 1016.7
20260509130004 67 357 4.3 7.0 0.00 0.00 0.00 46 1016.8
20260509125403 67 3 3.5 7.0 0.00 0.00 0.00 47 1016.9
20260509124503 67 351 3.5 7.0 0.00 0.00 0.00 46 1017.1
20260509123816 67 1 3.5 7.8 0.00 0.00 0.00 47 1017.1
20260509122918 67 5 3.5 7.8 0.00 0.00 0.00 48 1017.1
20260509121803 66 17 3.5 7.8 0.00 0.00 0.00 48 1017.2
20260509120903 66 19 3.5 7.8 0.00 0.00 0.00 48 1017.3
20260509120003 66 35 3.5 7.8 0.00 0.00 0.00 47 1017.4
20260509115403 66 30 2.6 7.0 0.00 0.00 0.00 47 1017.4
20260509114503 67 70 2.6 7.8 0.00 0.00 0.00 50 1017.6
20260509113603 66 42 3.5 7.0 0.00 0.00 0.00 50 1017.6
20260509112917 66 74 3.5 8.7 0.00 0.00 0.00 48 1017.7
20260509111803 66 82 2.6 6.1 0.00 0.00 0.00 49 1017.8
20260509111118 66 76 3.5 8.7 0.00 0.00 0.00 52 1017.8
20260509110003 66 67 2.6 7.8 0.00 0.00 0.00 51 1017.9
20260509105403 66 63 2.6 7.0 0.00 0.00 0.00 52 1018.0
20260509104503 65 74 3.5 7.8 0.00 0.00 0.00 51 1018.1
20260509103603 65 70 3.5 7.8 0.00 0.00 0.00 52 1018.1
20260509102703 65 82 3.5 8.7 0.00 0.00 0.00 54 1018.1
20260509101803 65 73 3.5 8.7 0.00 0.00 0.00 54 1018.3
20260509100903 64 61 3.5 6.1 0.00 0.00 0.00 56 1018.3
20260509100004 64 32 3.5 7.8 0.00 0.00 0.00 57 1018.4
20260509095403 64 37 3.5 7.8 0.00 0.00 0.00 59 1018.3
20260509094503 63 54 3.5 7.0 0.00 0.00 0.00 61 1018.3
20260509093818 63 24 3.5 7.0 0.00 0.00 0.00 63 1018.3
20260509092703 62 27 4.3 7.8 0.00 0.00 0.00 65 1018.4
20260509091803 62 23 4.3 7.8 0.00 0.00 0.00 66 1018.4